Time,TemperatureF,DewpointF,PressureIn,WindDirection,WindDirectionDegrees,WindSpeedMPH,WindSpeedGustMPH,Humidity,HourlyPrecipIn,Conditions,Clouds,dailyrainin,SoftwareType,DateUTC
2013-11-20 00:00:00,44.0,0.0,100.00,NNW,328,3.0,3.0,57,-99.99,,,-99.99,,2013-11-20 08:00:00,
2013-11-20 00:08:00,43.0,0.0,100.00,NW,306,2.0,5.0,56,-99.99,,,-99.99,,2013-11-20 08:08:00,
2013-11-20 00:16:00,43.0,0.0,100.00,WNW,300,6.0,7.0,57,-99.99,,,-99.99,,2013-11-20 08:16:00,
2013-11-20 00:24:00,43.0,0.0,100.00,NW,322,7.0,7.0,63,-99.99,,,-99.99,,2013-11-20 08:24:00,
2013-11-20 00:32:00,44.0,0.0,100.00,NW,305,5.0,7.0,61,-99.99,,,-99.99,,2013-11-20 08:32:00,
2013-11-20 00:40:00,43.0,0.0,100.00,North,355,5.0,6.0,59,-99.99,,,-99.99,,2013-11-20 08:40:00,
2013-11-20 00:48:00,43.0,0.0,100.00,NNE,30,6.0,6.0,60,-99.99,,,-99.99,,2013-11-20 08:48:00,
2013-11-20 00:56:00,43.0,0.0,100.00,NE,45,7.0,7.0,63,-99.99,,,-99.99,,2013-11-20 08:56:00,
2013-11-20 01:04:00,43.0,0.0,100.00,ENE,67,6.0,8.0,63,-99.99,,,-99.99,,2013-11-20 09:04:00,
2013-11-20 01:12:00,43.0,0.0,100.00,NE,51,5.0,7.0,62,-99.99,,,-99.99,,2013-11-20 09:12:00,
2013-11-20 01:20:00,43.0,0.0,100.00,NNW,335,2.0,7.0,62,-99.99,,,-99.99,,2013-11-20 09:20:00,
2013-11-20 01:28:00,42.0,0.0,100.00,NW,306,3.0,5.0,63,-99.99,,,-99.99,,2013-11-20 09:28:00,
2013-11-20 01:36:00,44.0,0.0,100.00,NE,53,2.0,5.0,59,-99.99,,,-99.99,,2013-11-20 09:36:00,
2013-11-20 01:44:00,43.0,0.0,100.00,ENE,67,2.0,5.0,59,-99.99,,,-99.99,,2013-11-20 09:44:00,
2013-11-20 01:52:00,43.0,0.0,100.00,East,84,3.0,3.0,60,-99.99,,,-99.99,,2013-11-20 09:52:00,
2013-11-20 02:00:00,44.0,0.0,100.00,South,182,2.0,5.0,61,-99.99,,,-99.99,,2013-11-20 10:00:00,
2013-11-20 02:08:00,44.0,0.0,100.00,West,278,6.0,7.0,62,-99.99,,,-99.99,,2013-11-20 10:08:00,
2013-11-20 02:16:00,43.0,0.0,100.00,West,278,2.0,8.0,58,-99.99,,,-99.99,,2013-11-20 10:16:00,
2013-11-20 02:24:00,43.0,0.0,100.00,NW,305,2.0,5.0,60,-99.99,,,-99.99,,2013-11-20 10:24:00,
2013-11-20 02:32:00,43.0,0.0,100.00,WNW,298,2.0,3.0,61,-99.99,,,-99.99,,2013-11-20 10:32:00,
2013-11-20 02:40:00,43.0,0.0,100.00,WNW,285,3.0,3.0,60,-99.99,,,-99.99,,2013-11-20 10:40:00,
2013-11-20 02:48:00,43.0,0.0,100.00,NW,309,6.0,6.0,59,-99.99,,,-99.99,,2013-11-20 10:48:00,
2013-11-20 02:56:00,43.0,0.0,100.00,WNW,287,2.0,6.0,60,-99.99,,,-99.99,,2013-11-20 10:56:00,
2013-11-20 03:04:00,44.0,0.0,100.00,West,263,3.0,3.0,60,-99.99,,,-99.99,,2013-11-20 11:04:00,
2013-11-20 03:12:00,44.0,0.0,100.00,SW,224,3.0,5.0,57,-99.99,,,-99.99,,2013-11-20 11:12:00,
2013-11-20 03:20:00,44.0,0.0,100.00,WSW,256,5.0,5.0,58,-99.99,,,-99.99,,2013-11-20 11:20:00,
2013-11-20 03:28:00,44.0,0.0,100.00,West,266,3.0,5.0,60,-99.99,,,-99.99,,2013-11-20 11:28:00,
2013-11-20 03:36:00,44.0,0.0,100.00,WSW,252,2.0,5.0,57,-99.99,,,-99.99,,2013-11-20 11:36:00,
2013-11-20 03:44:00,44.0,0.0,100.00,West,260,5.0,6.0,58,-99.99,,,-99.99,,2013-11-20 11:44:00,
2013-11-20 03:52:00,45.0,0.0,100.00,West,263,5.0,6.0,60,-99.99,,,-99.99,,2013-11-20 11:52:00,
2013-11-20 04:00:00,45.0,0.0,100.00,North,354,2.0,5.0,62,-99.99,,,-99.99,,2013-11-20 12:00:00,
2013-11-20 04:08:00,44.0,0.0,100.00,NNE,24,0.0,5.0,59,-99.99,,,-99.99,,2013-11-20 12:08:00,
2013-11-20 04:16:00,45.0,0.0,100.00,West,276,1.0,2.0,58,-99.99,,,-99.99,,2013-11-20 12:16:00,
2013-11-20 04:24:00,45.0,0.0,100.00,WSW,245,0.0,2.0,57,-99.99,,,-99.99,,2013-11-20 12:24:00,
2013-11-20 04:32:00,45.0,0.0,100.00,NNW,332,0.0,1.0,57,-99.99,,,-99.99,,2013-11-20 12:32:00,
2013-11-20 04:40:00,45.0,0.0,100.00,NNW,331,0.0,0.0,60,-99.99,,,-99.99,,2013-11-20 12:40:00,
2013-11-20 04:48:00,45.0,0.0,100.00,NNW,332,1.0,1.0,59,-99.99,,,-99.99,,2013-11-20 12:48:00,
2013-11-20 04:56:00,45.0,0.0,100.00,SSW,213,1.0,2.0,59,-99.99,,,-99.99,,2013-11-20 12:56:00,
2013-11-20 05:04:00,45.0,0.0,100.00,SSE,158,1.0,2.0,60,-99.99,,,-99.99,,2013-11-20 13:04:00,
2013-11-20 05:12:00,45.0,0.0,100.00,South,172,1.0,2.0,57,-99.99,,,-99.99,,2013-11-20 13:12:00,
2013-11-20 05:20:00,45.0,0.0,100.00,South,172,1.0,2.0,57,-99.99,,,-99.99,,2013-11-20 13:20:00,
2013-11-20 05:28:00,45.0,0.0,100.00,NNE,32,3.0,5.0,57,-99.99,,,-99.99,,2013-11-20 13:28:00,
2013-11-20 05:36:00,45.0,0.0,100.00,NNE,32,5.0,7.0,57,-99.99,,,-99.99,,2013-11-20 13:36:00,
2013-11-20 05:44:00,45.0,0.0,100.00,East,86,2.0,5.0,58,-99.99,,,-99.99,,2013-11-20 13:44:00,
2013-11-20 05:52:00,45.0,0.0,100.00,SE,136,5.0,5.0,57,-99.99,,,-99.99,,2013-11-20 13:52:00,
2013-11-20 06:00:00,45.0,0.0,100.00,SSW,200,2.0,5.0,58,-99.99,,,-99.99,,2013-11-20 14:00:00,
2013-11-20 06:08:00,45.0,0.0,100.00,SSW,213,0.0,3.0,58,-99.99,,,-99.99,,2013-11-20 14:08:00,
2013-11-20 06:16:00,44.0,0.0,100.00,NW,323,5.0,6.0,62,-99.99,,,-99.99,,2013-11-20 14:16:00,
2013-11-20 06:24:00,44.0,0.0,100.00,WNW,293,5.0,7.0,61,-99.99,,,-99.99,,2013-11-20 14:24:00,
2013-11-20 06:32:00,44.0,0.0,100.00,WNW,295,5.0,6.0,59,-99.99,,,-99.99,,2013-11-20 14:32:00,
2013-11-20 06:40:00,45.0,0.0,100.00,NW,305,2.0,5.0,60,-99.99,,,-99.99,,2013-11-20 14:40:00,
2013-11-20 06:48:00,45.0,0.0,100.00,WSW,257,1.0,3.0,58,-99.99,,,-99.99,,2013-11-20 14:48:00,
2013-11-20 06:56:00,45.0,0.0,100.00,WSW,241,1.0,2.0,59,-99.99,,,-99.99,,2013-11-20 14:56:00,
2013-11-20 07:04:00,45.0,0.0,100.00,WSW,238,2.0,3.0,60,-99.99,,,-99.99,,2013-11-20 15:04:00,
2013-11-20 07:12:00,45.0,0.0,100.00,SSE,161,1.0,6.0,61,-99.99,,,-99.99,,2013-11-20 15:12:00,
2013-11-20 07:20:00,44.0,0.0,100.00,SW,220,2.0,5.0,57,-99.99,,,-99.99,,2013-11-20 15:20:00,
2013-11-20 07:28:00,44.0,0.0,100.00,SW,222,2.0,6.0,62,-99.99,,,-99.99,,2013-11-20 15:28:00,
2013-11-20 07:36:00,45.0,0.0,100.00,SSE,159,1.0,3.0,57,-99.99,,,-99.99,,2013-11-20 15:36:00,
2013-11-20 07:44:00,46.0,0.0,100.00,SW,226,3.0,5.0,57,-99.99,,,-99.99,,2013-11-20 15:44:00,
2013-11-20 07:52:00,46.0,0.0,100.00,SW,231,2.0,5.0,59,-99.99,,,-99.99,,2013-11-20 15:52:00,
2013-11-20 08:00:00,46.0,0.0,100.00,SW,224,2.0,3.0,59,-99.99,,,-99.99,,2013-11-20 16:00:00,
2013-11-20 08:08:00,46.0,0.0,100.00,SSW,196,5.0,5.0,59,-99.99,,,-99.99,,2013-11-20 16:08:00,
2013-11-20 08:16:00,46.0,0.0,100.00,South,169,6.0,8.0,57,-99.99,,,-99.99,,2013-11-20 16:16:00,
2013-11-20 08:24:00,46.0,0.0,100.00,South,181,5.0,7.0,58,-99.99,,,-99.99,,2013-11-20 16:24:00,
2013-11-20 08:32:00,47.0,0.0,100.00,South,169,5.0,7.0,56,-99.99,,,-99.99,,2013-11-20 16:32:00,
2013-11-20 08:40:00,52.0,0.0,100.00,SSE,153,3.0,6.0,50,-99.99,,,-99.99,,2013-11-20 16:40:00,
2013-11-20 08:48:00,54.0,0.0,100.00,South,185,2.0,5.0,47,-99.99,,,-99.99,,2013-11-20 16:48:00,
2013-11-20 08:56:00,54.0,0.0,100.00,South,176,2.0,3.0,49,-99.99,,,-99.99,,2013-11-20 16:56:00,
2013-11-20 09:04:00,56.0,0.0,100.00,South,183,2.0,3.0,46,-99.99,,,-99.99,,2013-11-20 17:04:00,
2013-11-20 09:12:00,56.0,0.0,100.00,SSW,193,5.0,5.0,45,-99.99,,,-99.99,,2013-11-20 17:12:00,
2013-11-20 09:20:00,57.0,0.0,100.00,South,181,5.0,7.0,46,-99.99,,,-99.99,,2013-11-20 17:20:00,
2013-11-20 09:28:00,57.0,0.0,100.00,SSE,157,3.0,7.0,44,-99.99,,,-99.99,,2013-11-20 17:28:00,
2013-11-20 09:36:00,58.0,0.0,100.00,SSE,153,3.0,7.0,47,-99.99,,,-99.99,,2013-11-20 17:36:00,
2013-11-20 09:44:00,58.0,0.0,100.00,South,180,5.0,8.0,44,-99.99,,,-99.99,,2013-11-20 17:44:00,
2013-11-20 09:56:00,59.0,0.0,100.00,SSE,164,6.0,9.0,43,-99.99,,,-99.99,,2013-11-20 17:56:00,
2013-11-20 10:04:00,60.0,0.0,100.00,SSE,156,6.0,9.0,44,-99.99,,,-99.99,,2013-11-20 18:04:00,
2013-11-20 10:12:00,60.0,0.0,100.00,SE,135,9.0,10.0,42,-99.99,,,-99.99,,2013-11-20 18:12:00,
2013-11-20 10:20:00,60.0,0.0,100.00,SE,144,6.0,10.0,44,-99.99,,,-99.99,,2013-11-20 18:20:00,
2013-11-20 10:28:00,60.0,0.0,100.00,SE,130,3.0,10.0,41,-99.99,,,-99.99,,2013-11-20 18:28:00,
2013-11-20 10:36:00,60.0,0.0,100.00,SE,140,5.0,9.0,44,-99.99,,,-99.99,,2013-11-20 18:36:00,
2013-11-20 10:48:00,61.0,0.0,100.00,SE,133,5.0,9.0,41,-99.99,,,-99.99,,2013-11-20 18:48:00,
2013-11-20 10:56:00,62.0,0.0,100.00,SE,129,5.0,9.0,43,-99.99,,,-99.99,,2013-11-20 18:56:00,
2013-11-20 11:08:00,63.0,0.0,100.00,ESE,109,6.0,14.0,41,-99.99,,,-99.99,,2013-11-20 19:08:00,
2013-11-20 11:16:00,63.0,0.0,100.00,SE,146,6.0,14.0,41,-99.99,,,-99.99,,2013-11-20 19:16:00,
2013-11-20 11:24:00,63.0,0.0,100.00,SSE,163,6.0,9.0,43,-99.99,,,-99.99,,2013-11-20 19:24:00,
2013-11-20 11:32:00,64.0,0.0,100.00,SSE,152,2.0,9.0,39,-99.99,,,-99.99,,2013-11-20 19:32:00,
2013-11-20 11:40:00,64.0,0.0,100.00,SSE,151,5.0,9.0,40,-99.99,,,-99.99,,2013-11-20 19:40:00,
2013-11-20 11:48:00,65.0,0.0,100.00,SSE,165,5.0,9.0,39,-99.99,,,-99.99,,2013-11-20 19:48:00,
2013-11-20 11:56:00,66.0,0.0,100.00,SE,125,9.0,10.0,39,-99.99,,,-99.99,,2013-11-20 19:56:00,
2013-11-20 12:08:00,65.0,0.0,100.00,South,170,7.0,12.0,39,-99.99,,,-99.99,,2013-11-20 20:08:00,
2013-11-20 12:24:00,65.0,0.0,100.00,SE,142,6.0,12.0,37,-99.99,,,-99.99,,2013-11-20 20:24:00,
2013-11-20 12:32:00,65.0,0.0,100.00,SE,143,3.0,13.0,38,-99.99,,,-99.99,,2013-11-20 20:32:00,
2013-11-20 12:40:00,66.0,0.0,100.00,SSE,158,8.0,13.0,36,-99.99,,,-99.99,,2013-11-20 20:40:00,
2013-11-20 12:48:00,66.0,0.0,100.00,SE,137,5.0,13.0,35,-99.99,,,-99.99,,2013-11-20 20:48:00,
2013-11-20 12:56:00,66.0,0.0,100.00,ESE,122,8.0,14.0,37,-99.99,,,-99.99,,2013-11-20 20:56:00,
2013-11-20 13:04:00,66.0,0.0,100.00,South,187,3.0,12.0,35,-99.99,,,-99.99,,2013-11-20 21:04:00,
2013-11-20 13:12:00,66.0,0.0,100.00,SSW,192,7.0,10.0,37,-99.99,,,-99.99,,2013-11-20 21:12:00,
2013-11-20 13:20:00,66.0,0.0,100.00,East,94,3.0,12.0,35,-99.99,,,-99.99,,2013-11-20 21:20:00,
2013-11-20 13:28:00,67.0,0.0,100.00,ESE,114,6.0,10.0,36,-99.99,,,-99.99,,2013-11-20 21:28:00,
2013-11-20 13:36:00,66.0,0.0,100.00,SSE,150,5.0,12.0,34,-99.99,,,-99.99,,2013-11-20 21:36:00,
2013-11-20 13:44:00,66.0,0.0,100.00,SSE,151,5.0,10.0,34,-99.99,,,-99.99,,2013-11-20 21:44:00,
2013-11-20 13:52:00,68.0,0.0,100.00,SSE,168,5.0,9.0,35,-99.99,,,-99.99,,2013-11-20 21:52:00,
2013-11-20 14:00:00,67.0,0.0,100.00,SE,146,2.0,10.0,37,-99.99,,,-99.99,,2013-11-20 22:00:00,
2013-11-20 14:08:00,67.0,0.0,100.00,ESE,114,5.0,10.0,36,-99.99,,,-99.99,,2013-11-20 22:08:00,
2013-11-20 14:16:00,68.0,0.0,100.00,ESE,111,8.0,9.0,34,-99.99,,,-99.99,,2013-11-20 22:16:00,
2013-11-20 14:24:00,67.0,0.0,100.00,SE,143,3.0,9.0,36,-99.99,,,-99.99,,2013-11-20 22:24:00,
2013-11-20 14:32:00,68.0,0.0,100.00,East,97,3.0,8.0,34,-99.99,,,-99.99,,2013-11-20 22:32:00,
2013-11-20 14:40:00,68.0,0.0,100.00,SE,146,3.0,10.0,34,-99.99,,,-99.99,,2013-11-20 22:40:00,
2013-11-20 14:48:00,68.0,0.0,100.00,SSW,194,6.0,6.0,34,-99.99,,,-99.99,,2013-11-20 22:48:00,
2013-11-20 14:56:00,68.0,0.0,100.00,South,174,3.0,8.0,35,-99.99,,,-99.99,,2013-11-20 22:56:00,
2013-11-20 15:04:00,68.0,0.0,100.00,SSE,150,10.0,14.0,37,-99.99,,,-99.99,,2013-11-20 23:04:00,
2013-11-20 15:12:00,67.0,0.0,100.00,SE,129,7.0,12.0,35,-99.99,,,-99.99,,2013-11-20 23:12:00,
2013-11-20 15:20:00,68.0,0.0,100.00,SSE,161,8.0,10.0,35,-99.99,,,-99.99,,2013-11-20 23:20:00,
2013-11-20 15:28:00,67.0,0.0,100.00,SE,138,7.0,10.0,37,-99.99,,,-99.99,,2013-11-20 23:28:00,
2013-11-20 15:36:00,67.0,0.0,100.00,SE,126,7.0,9.0,35,-99.99,,,-99.99,,2013-11-20 23:36:00,
2013-11-20 15:44:00,67.0,0.0,100.00,SE,126,6.0,9.0,37,-99.99,,,-99.99,,2013-11-20 23:44:00,
2013-11-20 15:52:00,67.0,0.0,100.00,ESE,112,8.0,10.0,35,-99.99,,,-99.99,,2013-11-20 23:52:00,
2013-11-20 16:00:00,67.0,0.0,100.00,ESE,114,6.0,10.0,37,-99.99,,,-99.99,,2013-11-21 00:00:00,
2013-11-20 16:08:00,67.0,0.0,100.00,ESE,114,5.0,8.0,38,-99.99,,,-99.99,,2013-11-21 00:08:00,
2013-11-20 16:16:00,67.0,0.0,100.00,SE,134,5.0,8.0,40,-99.99,,,-99.99,,2013-11-21 00:16:00,
2013-11-20 16:24:00,66.0,0.0,100.00,SE,125,3.0,7.0,40,-99.99,,,-99.99,,2013-11-21 00:24:00,
2013-11-20 16:32:00,66.0,0.0,100.00,SE,138,3.0,6.0,40,-99.99,,,-99.99,,2013-11-21 00:32:00,
2013-11-20 16:40:00,65.0,0.0,100.00,ESE,117,3.0,5.0,40,-99.99,,,-99.99,,2013-11-21 00:40:00,
2013-11-20 16:48:00,64.0,0.0,100.00,East,86,1.0,3.0,43,-99.99,,,-99.99,,2013-11-21 00:48:00,
2013-11-20 16:56:00,64.0,0.0,100.00,East,86,0.0,2.0,39,-99.99,,,-99.99,,2013-11-21 00:56:00,
2013-11-20 17:04:00,63.0,0.0,100.00,NNW,330,1.0,1.0,39,-99.99,,,-99.99,,2013-11-21 01:04:00,
2013-11-20 17:12:00,61.0,0.0,100.00,WNW,301,2.0,3.0,41,-99.99,,,-99.99,,2013-11-21 01:12:00,
2013-11-20 17:20:00,61.0,0.0,100.00,WNW,295,5.0,5.0,42,-99.99,,,-99.99,,2013-11-21 01:20:00,
2013-11-20 17:28:00,59.0,0.0,100.00,WNW,297,6.0,7.0,45,-99.99,,,-99.99,,2013-11-21 01:28:00,
2013-11-20 17:36:00,60.0,0.0,100.00,WNW,303,7.0,9.0,45,-99.99,,,-99.99,,2013-11-21 01:36:00,
2013-11-20 17:44:00,61.0,0.0,100.00,WNW,289,8.0,9.0,44,-99.99,,,-99.99,,2013-11-21 01:44:00,
2013-11-20 17:52:00,60.0,0.0,100.00,West,268,6.0,10.0,44,-99.99,,,-99.99,,2013-11-21 01:52:00,
2013-11-20 18:00:00,60.0,0.0,100.00,West,268,6.0,9.0,46,-99.99,,,-99.99,,2013-11-21 02:00:00,
2013-11-20 18:08:00,60.0,0.0,100.00,WSW,247,7.0,9.0,44,-99.99,,,-99.99,,2013-11-21 02:08:00,
2013-11-20 18:16:00,59.0,0.0,100.00,WSW,238,9.0,12.0,45,-99.99,,,-99.99,,2013-11-21 02:16:00,
2013-11-20 18:24:00,60.0,0.0,100.00,SW,234,9.0,12.0,43,-99.99,,,-99.99,,2013-11-21 02:24:00,
2013-11-20 18:32:00,59.0,0.0,100.00,SW,234,7.0,12.0,45,-99.99,,,-99.99,,2013-11-21 02:32:00,
2013-11-20 18:40:00,60.0,0.0,100.00,WSW,238,7.0,12.0,43,-99.99,,,-99.99,,2013-11-21 02:40:00,
2013-11-20 18:48:00,58.0,0.0,100.00,SSW,204,7.0,9.0,49,-99.99,,,-99.99,,2013-11-21 02:48:00,
2013-11-20 18:56:00,57.0,0.0,100.00,South,183,6.0,9.0,48,-99.99,,,-99.99,,2013-11-21 02:56:00,
2013-11-20 19:04:00,57.0,0.0,100.00,SW,217,6.0,12.0,49,-99.99,,,-99.99,,2013-11-21 03:04:00,
2013-11-20 19:12:00,58.0,0.0,100.00,South,186,6.0,12.0,46,-99.99,,,-99.99,,2013-11-21 03:12:00,
2013-11-20 19:20:00,56.0,0.0,100.00,SSW,202,3.0,9.0,48,-99.99,,,-99.99,,2013-11-21 03:20:00,
2013-11-20 19:28:00,56.0,0.0,100.00,WNW,292,2.0,5.0,48,-99.99,,,-99.99,,2013-11-21 03:28:00,
2013-11-20 19:36:00,58.0,0.0,100.00,SSW,193,3.0,5.0,46,-99.99,,,-99.99,,2013-11-21 03:36:00,
2013-11-20 19:44:00,58.0,0.0,100.00,South,184,7.0,10.0,51,-99.99,,,-99.99,,2013-11-21 03:44:00,
2013-11-20 19:52:00,58.0,0.0,100.00,SSW,211,3.0,10.0,48,-99.99,,,-99.99,,2013-11-21 03:52:00,
2013-11-20 20:00:00,58.0,0.0,100.00,SE,131,5.0,7.0,47,-99.99,,,-99.99,,2013-11-21 04:00:00,
2013-11-20 20:08:00,56.0,0.0,100.00,SSE,151,3.0,5.0,51,-99.99,,,-99.99,,2013-11-21 04:08:00,
2013-11-20 20:16:00,56.0,0.0,100.00,SW,216,6.0,7.0,50,-99.99,,,-99.99,,2013-11-21 04:16:00,
2013-11-20 20:24:00,59.0,0.0,100.00,SW,223,5.0,13.0,46,-99.99,,,-99.99,,2013-11-21 04:24:00,
2013-11-20 20:32:00,58.0,0.0,100.00,ESE,113,1.0,10.0,50,-99.99,,,-99.99,,2013-11-21 04:32:00,
2013-11-20 20:40:00,56.0,0.0,100.00,ENE,74,6.0,8.0,51,-99.99,,,-99.99,,2013-11-21 04:40:00,
2013-11-20 20:48:00,57.0,0.0,100.00,SSE,150,6.0,7.0,52,-99.99,,,-99.99,,2013-11-21 04:48:00,
2013-11-20 20:56:00,58.0,0.0,100.00,SE,134,7.0,9.0,48,-99.99,,,-99.99,,2013-11-21 04:56:00,
2013-11-20 21:04:00,59.0,0.0,100.00,SSE,165,5.0,10.0,49,-99.99,,,-99.99,,2013-11-21 05:04:00,
2013-11-20 21:08:00,59.0,0.0,100.00,SE,126,5.0,10.0,47,-99.99,,,-99.99,,2013-11-21 05:08:00,
2013-11-20 21:12:00,59.0,0.0,100.00,SE,126,5.0,10.0,47,-99.99,,,-99.99,,2013-11-21 05:12:00,
2013-11-20 21:20:00,59.0,0.0,100.00,SE,137,3.0,10.0,47,-99.99,,,-99.99,,2013-11-21 05:20:00,
2013-11-20 21:28:00,59.0,0.0,100.00,South,187,3.0,6.0,50,-99.99,,,-99.99,,2013-11-21 05:28:00,
2013-11-20 21:36:00,58.0,0.0,100.00,ENE,78,0.0,3.0,50,-99.99,,,-99.99,,2013-11-21 05:36:00,
2013-11-20 21:44:00,57.0,0.0,100.00,East,100,7.0,9.0,52,-99.99,,,-99.99,,2013-11-21 05:44:00,
2013-11-20 21:52:00,59.0,0.0,100.00,ESE,118,2.0,14.0,47,-99.99,,,-99.99,,2013-11-21 05:52:00,
2013-11-20 22:00:00,60.0,0.0,100.00,SSE,162,5.0,12.0,48,-99.99,,,-99.99,,2013-11-21 06:00:00,
2013-11-20 22:04:00,60.0,0.0,100.00,SSE,160,7.0,12.0,50,-99.99,,,-99.99,,2013-11-21 06:04:00,
2013-11-20 22:12:00,59.0,0.0,100.00,WNW,296,5.0,21.0,50,-99.99,,,-99.99,,2013-11-21 06:12:00,
2013-11-20 22:20:00,59.0,0.0,100.00,SSW,213,7.0,16.0,51,-99.99,,,-99.99,,2013-11-21 06:20:00,
2013-11-20 22:28:00,58.0,0.0,100.00,ESE,115,2.0,10.0,53,-99.99,,,-99.99,,2013-11-21 06:28:00,
2013-11-20 22:32:00,57.0,0.0,100.00,SSE,159,3.0,7.0,51,-99.99,,,-99.99,,2013-11-21 06:32:00,
2013-11-20 22:40:00,57.0,0.0,100.00,South,183,8.0,12.0,52,-99.99,,,-99.99,,2013-11-21 06:40:00,
2013-11-20 22:48:00,58.0,0.0,100.00,SSW,208,3.0,12.0,52,-99.99,,,-99.99,,2013-11-21 06:48:00,
2013-11-20 22:56:00,57.0,0.0,100.00,SSE,151,1.0,7.0,52,-99.99,,,-99.99,,2013-11-21 06:56:00,
2013-11-20 23:04:00,56.0,0.0,100.00,SSW,196,7.0,8.0,52,-99.99,,,-99.99,,2013-11-21 07:04:00,
2013-11-20 23:12:00,56.0,0.0,100.00,NNW,327,7.0,13.0,55,-99.99,,,-99.99,,2013-11-21 07:12:00,
2013-11-20 23:20:00,54.0,0.0,100.00,SSW,199,2.0,8.0,56,-99.99,,,-99.99,,2013-11-21 07:20:00,
2013-11-20 23:28:00,54.0,0.0,100.00,NW,314,6.0,8.0,54,-99.99,,,-99.99,,2013-11-21 07:28:00,
2013-11-20 23:36:00,54.0,0.0,100.00,West,261,3.0,7.0,56,-99.99,,,-99.99,,2013-11-21 07:36:00,
2013-11-20 23:44:00,56.0,0.0,100.00,WSW,246,16.0,18.0,56,-99.99,,,-99.99,,2013-11-21 07:44:00,
2013-11-20 23:52:00,59.0,0.0,100.00,WSW,238,13.0,21.0,50,-99.99,,,-99.99,,2013-11-21 07:52:00,